Location: Devore Heights
(34.2372°N, 117.4156°W)
Time: 08:31:57
(UTC+00:00)

A-11 Canister half - Pass Details

Date: 19 September 2024
Orbit: 1515 x 1684 km, 47.2° (Epoch: 07 October)

Event Time Altitude Azimuth Distance (km) Brightness Sun altitude
Rises 09:28:34 0° 297° (WNW) 4,659 - -46.8°
Reaches altitude 10° 09:32:02 10° 288° (WNW) 3,680 - -46.3°
Maximum altitude 09:39:40 30° 231° (SW) 2,481 - -45.3°
Drops below altitude 10° 09:47:27 10° 175° (S) 3,742 - -44.1°
Sets 09:51:04 0° 165° (SSE) 4,749 - -43.6°
